COSMOS 2263

Satellite information

Favourite Embed

Satellite Type and Status

PAYLOADIN ORBIT

Key statistics

Satellite COSMOS 2263 at a glance.

Uptime

11671

Days in orbit

Revolutions

≈ 14.1

Per day

Orbit

LEO

Low Earth Orbit

Inclination

70.9

Latest

Satellite identification and parameters

Extended collection of information and parameters for COSMOS 2263.

Object identification

Identified? True

Debris? False

Object name: COSMOS 2263

International designator: 1993-059A

Object number (NORAD): 22802

Object ID (CCSDS): 22802

Country: COMMONWEALTH OF INDEPENDENT STATES (CIS)

Current information (Y/N): Y

RCS size: LARGE

Orbital parameters

Period: 101.869 minutes

Inclination: 70.9272 deg

SMA: 7225.268 km

Apoapsis: 863.064 km

Periapsis: 831.203 km

RAAN: 145.0897 deg

Eccentricy: 0.00220486

Argument of periapsis: 47.5167 deg

Mean anomaly: 312.7813 deg

Mean motion: 14.13584542 rev/day

Mean motion (dot): 0.00000333 rev/day2

B* drag term: 0.0002016405 1/REarth

Two-line elements (TLE)

Creation date: Aug. 30, 2025, 3:38 a.m.

Reference frame: TEME

Reference center: EARTH

Epoch: Aug. 29, 2025, 10:04 p.m. UTC

TLE line 0: 0 COSMOS 2263

TLE line 1: 1 22802U 93059A 25241.91971811 .00000333 00000-0 20164-3 0 9996

TLE line 2: 2 22802 70.9272 145.0897 0022049 47.5167 312.7813 14.13584542648161

Live tracking on map

Real-time ground track for satellite COSMOS 2263.

In-orbit conjunctions

A list of the most updated potential collisions computed for object COSMOS 2263.

Target Orbit TCA Probability of collision Miss distance Type
FENGYUN 1C DEB * SSO 2025-04-08 00:48:19 0.0001116305 698.0 (m) DEBRIS
CZ-6A DEB SSO 2025-01-29 14:53:51 0.0001320152 492.0 (m) DEBRIS
NOAA 16 DEB SSO 2024-09-24 23:58:11 0.0002638922 309.0 (m) DEBRIS
CZ-6A DEB SSO 2024-09-23 05:45:34 0.0007161264 594.0 (m) DEBRIS
NOAA 16 DEB SSO 2024-09-12 11:34:25 0.000461174 95.0 (m) DEBRIS

Associated space launch

Second generation ELING satellite

COSMOS 2263 was lifted into orbit during the mission ‘Zenit-2 | Tselina-2 14’, on board a Zenit-2 space rocket.

The launch took place on Sept. 16, 1993, 7:36 a.m. from 45/1.

For more information about the launch, click the button.

Launch to space Zenit-2 | Tselina-2 14
Zenit-2 | Tselina-2 14

Agency: N/A

Status: Launch Successful

Launch date: Sept. 16, 1993, 7:36 a.m. UTC

Rocket: Zenit-2

Launch pad: 45/1

Location: Baikonur Cosmodrome, Republic of Kazakhstan

...

Latest news about this satellite

There are no fresh news available about this satellite. Check back as we update our databases every day.


Newsletter sign-up

Weekly statistics, charts and insights to help you stay on top of the space industry.